Location: Del Amo
(33.8464°N, 118.2104°W)
Time: 17:43:29
(UTC+00:00)

Vanguard 2 Rocket - Pass Details

Date: 13 September 2024
Orbit: 553 x 3298 km, 32.9° (Epoch: 11 October)

Event Time Altitude Azimuth Distance (km) Brightness Sun altitude
Rises 17:32:08 0° 282° (WNW) 7,159 11.1 46.0°
Reaches altitude 10° 17:38:17 10° 271° (W) 6,246 10.9 47.0°
Maximum altitude 17:52:23 25° 226° (SW) 4,886 10.9 49.3°
Drops below altitude 10° 18:04:38 10° 179° (S) 5,323 11.4 51.1°
Sets 18:09:25 0° 167° (SSE) 5,931 11.6 51.8°
